Overview Statistics Trail Chart Weather Telemetry Raw packets
 

This is the latest recevied weather packets stored in our database for station/object JA0BES-13. If no packets are shown the sender has not sent any weather packets the latest 10 day(s).

<< 1 2 3 4 5 >>
Time Temp. Humidity Pressure Rain* Wind** Luminosity Snow
1788649076 21.67° C 93% 1013.6 hPa 0 mm - - -
1788648448 21.11° C 95% 1013.5 hPa 0 mm - - -
1788647848 21.11° C 95% 1013.3 hPa 0 mm - - -
1788647247 21.11° C 96% 1013.3 hPa 0 mm - - -
1788646647 20.56° C 96% 1013.4 hPa 0 mm - - -
1788646046 20.56° C 98% 1013.5 hPa 0 mm - - -
1788645446 20.56° C 98% 1013.2 hPa 0 mm - - -
1788644845 20.56° C 98% 1013.4 hPa 0 mm - - -
1788644245 20.56° C 98% 1013.5 hPa 0 mm - - -
1788643645 20.56° C 98% 1013.5 hPa 0 mm - - -
1788643045 20.56° C 98% 1013.6 hPa 0 mm - - -
1788642444 20° C 98% 1013.5 hPa 0 mm - - -
1788611226 22.78° C 100% 1013.5 hPa 0 mm - - -
1788610626 23.33° C 100% 1013.5 hPa 0 mm - - -
1788610025 23.33° C 100% 1013.5 hPa 0 mm - - -
1788609425 23.33° C 100% 1013.4 hPa 0 mm - - -
1788608824 23.33° C 100% 1013.4 hPa 0 mm - - -
1788608224 23.33° C 99% 1013.4 hPa 0 mm - - -
1788607624 23.33° C 99% 1013.4 hPa 0 mm - - -
1788607024 23.33° C 98% 1013.3 hPa 0 mm - - -
1788606423 23.89° C 98% 1013.2 hPa 0 mm - - -
1788605823 23.89° C 98% 1013.3 hPa 0 mm - - -
1788605222 23.89° C 97% 1013.1 hPa 0 mm - - -
1788604622 23.89° C 97% 1013.1 hPa 0 mm - - -
1788604021 23.89° C 97% 1012.9 hPa 0 mm - - -

* Rain since midnight (hover to see other rain measurements)
** Current wind speed in m/s (hover to see current wind gust speed)